User: anonymous   Login
Location: ??????
(30.5519°N, 47.7720°E)
Time: 00:00:07
(UTC+00:00)
Language:

Sakura Rocket - Orbit

View from above orbital plane
View from above orbital plane
View from above satellite
View from above satellite

Ground track
Ground track

The orbit data is extracted from the following two-line orbital elements,

1 10517U 77118B   21110.42939436  .00000709  00000-0  11499-3 0  9996
2 10517  28.6583 278.4034 0845265 124.1807 244.1799 13.39989289 97934
Epoch (UTC): 20 April 2021 10:18:19
Eccentricity: 0.0845265
inclination: 28.6583°
perigee height: 476 km
apogee height: 1742 km
right ascension of ascending node: 278.4034°
argument of perigee: 124.1807°
revolutions per day: 13.39989289
mean anomaly at epoch: 244.1799°
orbit number at epoch: 9793

The dashed part of the orbit path shows where the satellite is in the earth's shadow,  

DLR